Hourly Weather Roundup
Issued by NWS Central Illinois

Home | Current Version | Previous Version | Text Only | Print | Product List | Glossary On
Versions: 1 2 3 4 5 6 7 8 9 10 11 12 13 14 15 16 17 18 19 20 21 22 23 24 25 26 27 28 29 30 31 32 33 34 35 36 37 38 39 40 41 42 43 44 45 46 47 48 49 50
000
NZUS43 KILX 050010
HWRILX

AREA WEATHER ROUNDUP
NATIONAL WEATHER SERVICE, LINCOLN IL
700 PM CDT MON MAY 04 2015


CITY           SKY/WX    TMP DP  RH WIND       PRES   REMARKS
BLOOMINGTON    MOCLDY    72  66  81 E7        30.12R
6HR MIN TEMP:  71; 6HR MAX TEMP:  76;

CHAMPAIGN      MOCLDY    71  63  75 NE12      30.10F
6HR MIN TEMP:  71; 6HR MAX TEMP:  82; 6HR PCP: TRACE;

DANVILLE       CLOUDY    64  62  91 E6        30.10S
6HR MIN TEMP:  63; 6HR MAX TEMP:  77; 6HR PCP:  0.06;

DECATUR        CLOUDY    78  58  49 S3        30.08S
6HR MIN TEMP:  78; 6HR MAX TEMP:  81;

EFFINGHAM      MOCLDY    78  51  38 S6        30.10S
FLORA          PTCLDY    80  55  42 S9        30.10S HX  80
6HR MIN TEMP:  80; 6HR MAX TEMP:  83;

GALESBURG      RAIN      69  64  82 E6        30.07F
JACKSONVILLE   MOCLDY    82  59  45 S8        30.05R HX  82
6HR MIN TEMP:  81; 6HR MAX TEMP:  85;

LACON          PTCLDY    72  61  68 E6        30.08S
6HR MIN TEMP:  68; 6HR MAX TEMP:  76;

LAWRENCEVILLE  PTCLDY    78  57  48 S9        30.11S
6HR MIN TEMP:  78; 6HR MAX TEMP:  85;

LITCHFIELD     PTCLDY    79  56  45 S9        30.06S HX  80
$$


CITY           SKY/WX    TMP DP  RH WIND       PRES   REMARKS
LINCOLN        CLOUDY    76  65  68 NE7       30.05R
6HR MIN TEMP:  76; 6HR MAX TEMP:  82;

MACOMB         TSTM      64  62  91 SE7       30.09R
MATTOON        MOCLDY    78  56  46 S6        30.09S
6HR MIN TEMP:  75; 6HR MAX TEMP:  80;

MT CARMEL AP   PTCLDY    82  43  24 SW8       30.10F HX  80
OLNEY-NOBLE AP PTCLDY    79  55  44 S5        30.10S
PARIS          CLOUDY    79  57  46 SW8       30.11S
6HR MIN TEMP:  77; 6HR MAX TEMP:  81;

PEORIA         CLOUDY    74  62  66 E6        30.08R
6HR MIN TEMP:  71; 6HR MAX TEMP:  78; 6HR PCP: TRACE;

PONTIAC        PTCLDY    71  65  83 E8        30.12R
RANTOUL        MOCLDY    72  66  82 E10       30.11S
6HR MIN TEMP:  71; 6HR MAX TEMP:  79; 6HR PCP:  0.11;

ROBINSON       PTCLDY    79  53  41 SW8       30.11F
SPRINGFIELD    MOCLDY    80  55  42 SW3       30.06S HX  80
6HR MIN TEMP:  80; 6HR MAX TEMP:  84;

TAYLORVILLE    CLOUDY    79  55  44 S5        30.06F
$$

...REGIONAL REPORTS...


CITY           SKY/WX    TMP DP  RH WIND       PRES   REMARKS
CHICAGO O`HARE MOCLDY    62  46  55 NE9       30.15R
KANKAKEE       MOCLDY    69  63  81 E9        30.13R
MOLINE         CLOUDY    73  59  61 E12       30.07R
MOUNT VERNON   CLEAR    N/A N/A N/A S9        30.09F
PITTSFIELD     SUNNY     80  58  46 S3        30.06R HX  80
QUINCY         CLOUDY    76  61  59 W3        30.05R
ROCKFORD       MOCLDY    72  57  59 NE8       30.12S
$$


CITY           SKY/WX    TMP DP  RH WIND       PRES   REMARKS
BURLINGTON     LGT RAIN  69  66  90 SE10      30.05S
CEDAR RAPIDS   LGT RAIN  68  63  84 NE5       30.08R
DES MOINES     LGT RAIN  67  62  84 NE10      30.07F
KIRKSVILLE     MOSUNNY   73  63  70 S5        30.04F
OTTUMWA        CLOUDY    71  65  81 NE9       30.04S
ST LOUIS       MOCLDY    83  55  38 SW8       30.04F HX  82
$$


CITY           SKY/WX    TMP DP  RH WIND       PRES   REMARKS
TERRE HAUTE    MOCLDY    76  58  53 S3        30.11S
EVANSVILLE     PTCLDY    80  53  39 S12       30.13F HX  80
INDIANAPOLIS   CLOUDY    73  58  59 S9        30.14R
LAFAYETTE      CLOUDY    63  62  97 E6        30.13S
MADISON        CLOUDY    69  54  58 E14       30.12S
MILWAUKEE      MOCLDY    55  38  52 E5        30.17R
$$





USA.gov is the U.S. government's official web portal to all federal, state and local government web resources and services.